Location: Bremen
(53.0793°N, 8.8017°E)
Time: 07:21:32
(UTC+01:00)

Explorer 7 - Pass Details

Date: 02 December 2021
Orbit: 483 x 674 km, 50.3° (Epoch: 16 January)

Event Time Altitude Azimuth Distance (km) Brightness Sun altitude
Rises 09:25:30 0° 261° (W) 2,712 10.1 6.5°
Reaches altitude 10° 09:27:49 10° 257° (WSW) 1,787 9.2 6.7°
Maximum altitude 09:31:47 58° 178° (S) 604 7.6 7.1°
Drops below altitude 10° 09:35:34 10° 99° (E) 1,702 10.1 7.4°
Sets 09:37:43 0° 96° (E) 2,568 10.9 7.6°
